Content
SEND FEEDBACK

Daily
Averages
Monthly
Summary
France

PAIMPOL, FRANCE


Home > Europe > France
Elevation: 118 feet     Latitude: 48 51N     Longitude: 003 00W

WEATHER
 
SELECT A DAY
Number of Records: 178,274;   Date Range: 1/28/97 - 11/22/14
 
SHARE

PRINT THIS DATA

[ ← Previous Day ]
WEATHER ALMANAC - JANUARY 31, 2013
[ Next Day → ]
[ °C ]   °F
Weather ElementAverageHighLow
Temperature49.8 °F53.6 °F (1:00 pm)44.6 °F (12:30 am)
Dewpoint45.7 °F50 °F (12:30 pm)42.8 °F (12:30 am)
Humidity86 %94 % (8:30 am)71 % (3:30 pm)
Barometer30.11 in30.18 in (12:30 am)30.04 in (11:30 pm)
Wind Speed16.4 mph23 mph (2:30 pm)
Wind Gust34.5 mph (10:00 am)
Weather ElementAverage
Visibility6 mi
Wind DirectionSW (226.8 °)

Weather ElementTotal
Precipitation---
Heating Degree Days15.9 (Base 65)
Averaged from 47 records on January 31, 2013
WEATHER CONDITIONS BREAKOUT
WIND DIRECTION BREAKOUT
WEATHER BY HOUR - JANUARY 31, 2013
[ °C ]   °F
Local TimeTemperatureDewpointHumidityBarometerVisibilityWind DirectionWind SpeedGust SpeedPrecipitationEventsConditions
12:30 AM44.6 °F42.8 °F93 %30.18 in6.2 miSSW (210°)11.5 mph
1:00 AM46.4 °F42.8 °F87 %30.18 in6.2 miSSW (200°)11.5 mph
1:30 AM46.4 °F42.8 °F87 %30.18 in6.2 miSSW (200°)11.5 mph
2:00 AM46.4 °F44.6 °F93 %30.15 in6.2 miSSW (200°)13.8 mph
2:30 AM46.4 °F44.6 °F93 %30.15 in6.2 miSSW (200°)16.1 mph
3:00 AM46.4 °F44.6 °F93 %30.15 in6.2 miSSW (200°)16.1 mph
3:30 AM46.4 °F44.6 °F93 %30.12 in6.2 miSSW (200°)16.1 mph
4:00 AM48.2 °F42.8 °F82 %30.12 in6.2 miSSW (200°)17.3 mph
4:30 AM48.2 °F42.8 °F82 %30.09 in6.2 miSSW (200°)17.3 mph
5:00 AM48.2 °F44.6 °F87 %30.09 in6.2 miSSW (210°)20.7 mphScattered Clouds
5:30 AM48.2 °F44.6 °F87 %30.09 in6.2 miSSW (210°)19.6 mphScattered Clouds
6:00 AM50.0 °F44.6 °F82 %30.09 in6.2 miSW (220°)18.4 mph31.1 mphMostly Cloudy
6:30 AM50.0 °F44.6 °F82 %30.06 in6.2 miSW (230°)19.6 mphMostly Cloudy
7:00 AM50.0 °F46.4 °F87 %30.06 in6.2 miSW (220°)20.7 mphMostly Cloudy
7:30 AM50.0 °F46.4 °F87 %30.06 in6.2 miSW (220°)19.6 mphOvercast
8:00 AM51.8 °F46.4 °F82 %30.06 in6.2 miSW (220°)21.9 mphOvercast
8:30 AM50.0 °F48.2 °F94 %30.06 in6.2 miSW (220°)18.4 mph29.9 mphOvercast
9:00 AM51.8 °F48.2 °F88 %30.06 in6.2 miSW (220°)19.6 mphOvercast
9:30 AM51.8 °F48.2 °F88 %30.06 in4.3 miSW (230°)19.6 mphRainLight Rain
10:00 AM50.0 °F48.2 °F94 %30.09 in2.5 miWest (260°)19.6 mph34.5 mphRainRain
10:30 AM50.0 °F48.2 °F94 %30.12 in6.2 miWSW (250°)19.6 mphRainLight Rain
11:00 AM50.0 °F48.2 °F94 %30.12 in6.2 miWSW (250°)19.6 mphMostly Cloudy
11:30 AM51.8 °F48.2 °F88 %30.12 in6.2 miWSW (240°)17.3 mphMostly Cloudy
12:00 PM51.8 °F48.2 °F88 %30.12 in6.2 miWSW (250°)17.3 mphOvercast
12:30 PM51.8 °F50.0 °F94 %30.12 in6.2 miWSW (250°)19.6 mphMostly Cloudy
1:00 PM53.6 °F48.2 °F82 %30.12 in6.2 miWSW (250°)21.9 mphOvercast
1:30 PM53.6 °F46.4 °F77 %30.15 in6.2 miWSW (250°)20.7 mphOvercast
2:00 PM53.6 °F46.4 °F77 %30.15 in6.2 miWSW (250°)19.6 mphScattered Clouds
2:30 PM53.6 °F44.6 °F72 %30.12 in6.2 miWSW (250°)23.0 mph
3:00 PM51.8 °F44.6 °F76 %30.12 in6.2 miWSW (250°)19.6 mphMostly Cloudy
3:30 PM51.8 °F42.8 °F71 %30.12 in6.2 miWSW (250°)18.4 mphMostly Cloudy
4:00 PM51.8 °F44.6 °F76 %30.12 in6.2 miWSW (250°)18.4 mphMostly Cloudy
4:30 PM51.8 °F44.6 °F76 %30.12 in6.2 miWSW (250°)17.3 mphMostly Cloudy
5:00 PM51.8 °F44.6 °F76 %30.12 in6.2 miWSW (250°)15.0 mphMostly Cloudy
5:30 PM50.0 °F44.6 °F82 %30.12 in6.2 miWSW (240°)13.8 mphOvercast
6:00 PM50.0 °F44.6 °F82 %30.12 in6.2 miWSW (240°)13.8 mphMostly Cloudy
6:30 PM50.0 °F44.6 °F82 %30.12 in6.2 miWSW (240°)13.8 mphOvercast
7:00 PM50.0 °F46.4 °F87 %30.15 in6.2 miWSW (240°)12.7 mph
7:30 PM50.0 °F46.4 °F87 %30.12 in6.2 miSW (230°)12.7 mphOvercast
8:00 PM50.0 °F46.4 °F87 %30.12 in6.2 miSW (230°)12.7 mphOvercast
8:30 PM50.0 °F46.4 °F87 %30.12 in6.2 miSW (230°)12.7 mphMostly Cloudy
9:00 PM50.0 °F46.4 °F87 %30.09 in5.6 miSW (220°)11.5 mph
9:30 PM48.2 °F46.4 °F93 %30.09 in5.0 miSW (220°)11.5 mphMostly Cloudy
10:00 PM50.0 °F46.4 °F87 %30.09 in5.6 miSW (220°)10.4 mph
10:30 PM48.2 °F46.4 °F93 %30.06 in5.6 miSSW (200°)11.5 mph
11:00 PM48.2 °F46.4 °F93 %30.06 in5.6 miSSW (200°)9.2 mph
11:30 PM48.2 °F46.4 °F93 %30.04 in6.2 miSouth (190°)6.9 mph
Hourly data recorded from LFRO, located miles away from Paimpol, France







STORIES FROM OUR PARTNERS